When you browse on this site, cookies collect data to enhance your experience and personalize the content and advertising you see.
Visit our Privacy Policy to learn more. By continuing to use the site, you agree to this use of cookies and data.
  • In Romania
  • List of Countries
  • For 7 days
  • Water Temperature
  • Weather Map
  • Weather Widgets
  • user-avatar
    Login

    Hourly Weather Diapaga

    Today, 15 September, Sunday

    Time Temperature Precipitation Wind Pressure Humidity
    00:00 +27°C° 0 mm 3 mps 735 mmHg 80%
    01:00 +27°C° 0 mm 3 mps 734 mmHg 83%
    02:00 +26°C° 0 mm 2 mps 734 mmHg 85%
    03:00 +26°C° 0 mm 2 mps 733 mmHg 88%
    04:00 +26°C° 0 mm 2 mps 734 mmHg 88%
    05:00 +26°C° 0 mm 2 mps 734 mmHg 88%
    06:00 +26°C° 0 mm 1 mps 735 mmHg 89%
    07:00 +27°C° 0 mm 2 mps 736 mmHg 83%
    08:00 +29°C° 0 mm 2 mps 736 mmHg 76%
    09:00 +30°C° 0 mm 3 mps 737 mmHg 70%
    10:00 +33°C° 0 mm 3 mps 737 mmHg 64%
    11:00 +34°C° 0 mm 3 mps 736 mmHg 57%
    12:00 +35°C° 0 mm 3 mps 736 mmHg 50%
    13:00 +35°C° 0 mm 3 mps 735 mmHg 50%
    14:00 +35°C° 0 mm 2 mps 734 mmHg 50%
    15:00 +35°C° 0 mm 2 mps 733 mmHg 50%
    16:00 +33°C° 0 mm 1 mps 733 mmHg 54%
    17:00 +32°C° 0 mm 1 mps 734 mmHg 57%
    18:00 +28°C° 0 mm 0 mps 734 mmHg 61%
    19:00 +30°C° 0 mm 1 mps 734 mmHg 64%
    20:00 +29°C° 0 mm 1 mps 734 mmHg 68%
    21:00 +28°C° 0 mm 2 mps 735 mmHg 71%
    22:00 +27°C° 0 mm 2 mps 735 mmHg 74%
    23:00 +27°C° 0 mm 2 mps 735 mmHg 77%

    Tomorrow, 16 September, Monday

    Time Temperature Precipitation Wind Pressure Humidity
    00:00 +26°C° 0 mm 1 mps 735 mmHg 79%
    01:00 +26°C° 0 mm 1 mps 734 mmHg 80%
    02:00 +26°C° 0 mm 1 mps 734 mmHg 81%
    03:00 +26°C° 0 mm 1 mps 734 mmHg 82%
    04:00 +26°C° 0 mm 1 mps 734 mmHg 83%
    05:00 +26°C° 0 mm 1 mps 734 mmHg 84%
    06:00 +26°C° 0 mm 1 mps 735 mmHg 85%
    07:00 +27°C° 0.1 mm 2 mps 735 mmHg 83%
    08:00 +27°C° 0.1 mm 2 mps 736 mmHg 82%
    09:00 +28°C° 0.1 mm 2 mps 737 mmHg 80%
    10:00 +28°C° 0.1 mm 3 mps 736 mmHg 79%
    11:00 +28°C° 0.1 mm 3 mps 735 mmHg 78%
    12:00 +28°C° 0.1 mm 3 mps 735 mmHg 77%
    13:00 +28°C° 0 mm 3 mps 734 mmHg 75%
    14:00 +28°C° 0 mm 3 mps 734 mmHg 72%
    15:00 +29°C° 0 mm 3 mps 733 mmHg 70%
    16:00 +28°C° 0 mm 2 mps 733 mmHg 72%
    17:00 +28°C° 0 mm 1 mps 733 mmHg 73%
    18:00 +25°C° 0 mm 0 mps 734 mmHg 75%
    19:00 +27°C° 0 mm 1 mps 734 mmHg 77%
    20:00 +26°C° 0 mm 1 mps 735 mmHg 78%
    21:00 +26°C° 0 mm 1 mps 735 mmHg 80%
    22:00 +25°C° 0.3 mm 1 mps 735 mmHg 83%
    23:00 +25°C° 0.3 mm 1 mps 735 mmHg 86%

    Day after tomorrow, 17 September, Tuesday

    Time Temperature Precipitation Wind Pressure Humidity
    00:00 +24°C° 0.3 mm 1 mps 735 mmHg 90%
    01:00 +24°C° 0 mm 1 mps 735 mmHg 90%
    02:00 +24°C° 0 mm 1 mps 734 mmHg 91%
    03:00 +24°C° 0 mm 2 mps 734 mmHg 91%
    04:00 +24°C° 0 mm 2 mps 734 mmHg 91%
    05:00 +24°C° 0 mm 2 mps 734 mmHg 92%
    06:00 +24°C° 0 mm 2 mps 735 mmHg 92%
    07:00 +26°C° 0 mm 2 mps 735 mmHg 85%
    08:00 +27°C° 0 mm 2 mps 735 mmHg 78%
    09:00 +29°C° 0 mm 3 mps 736 mmHg 70%
    10:00 +31°C° 0 mm 3 mps 735 mmHg 64%
    11:00 +33°C° 0 mm 3 mps 735 mmHg 58%
    12:00 +35°C° 0 mm 3 mps 735 mmHg 52%
    13:00 +34°C° 0 mm 3 mps 734 mmHg 56%
    14:00 +33°C° 0 mm 3 mps 733 mmHg 60%
    15:00 +31°C° 0 mm 3 mps 733 mmHg 64%
    16:00 +30°C° 0 mm 2 mps 733 mmHg 68%
    17:00 +29°C° 0 mm 2 mps 733 mmHg 71%
    18:00 +28°C° 0 mm 2 mps 733 mmHg 75%
    19:00 +28°C° 0.2 mm 2 mps 734 mmHg 79%
    20:00 +27°C° 0.2 mm 3 mps 734 mmHg 84%
    21:00 +26°C° 0.2 mm 3 mps 735 mmHg 89%
    22:00 +26°C° 0 mm 3 mps 735 mmHg 90%
    23:00 +25°C° 0 mm 3 mps 735 mmHg 92%

    18 September, Wednesday

    Time Temperature Precipitation Wind Pressure Humidity
    00:00 +25°C° 0 mm 2 mps 735 mmHg 93%
    01:00 +25°C° 0 mm 2 mps 735 mmHg 94%
    02:00 +25°C° 0 mm 2 mps 735 mmHg 94%
    03:00 +24°C° 0 mm 2 mps 734 mmHg 95%
    04:00 +24°C° 0 mm 3 mps 735 mmHg 94%
    05:00 +24°C° 0 mm 3 mps 735 mmHg 94%
    06:00 +24°C° 0 mm 3 mps 736 mmHg 93%
    07:00 +26°C° 0 mm 4 mps 736 mmHg 86%
    08:00 +28°C° 0 mm 4 mps 736 mmHg 78%
    09:00 +30°C° 0 mm 5 mps 736 mmHg 70%
    10:00 +32°C° 0 mm 5 mps 736 mmHg 64%
    11:00 +34°C° 0 mm 5 mps 735 mmHg 57%
    12:00 +35°C° 0 mm 4 mps 735 mmHg 51%
    13:00 +35°C° 0.2 mm 4 mps 735 mmHg 51%
    14:00 +35°C° 0.2 mm 3 mps 734 mmHg 52%
    15:00 +36°C° 0.2 mm 3 mps 734 mmHg 53%
    16:00 +34°C° 1.3 mm 3 mps 734 mmHg 61%
    17:00 +31°C° 1.3 mm 3 mps 734 mmHg 69%
    18:00 +29°C° 1.3 mm 3 mps 734 mmHg 78%
    19:00 +28°C° 0.9 mm 2 mps 734 mmHg 81%
    20:00 +27°C° 0.9 mm 2 mps 735 mmHg 84%
    21:00 +27°C° 0.9 mm 2 mps 735 mmHg 87%
    22:00 +26°C° 0 mm 2 mps 735 mmHg 88%
    23:00 +26°C° 0 mm 2 mps 735 mmHg 90%

    19 September, Thursday

    Time Temperature Precipitation Wind Pressure Humidity
    00:00 +26°C° 0 mm 2 mps 735 mmHg 91%
    01:00 +25°C° 0.2 mm 2 mps 735 mmHg 92%
    02:00 +25°C° 0.2 mm 2 mps 735 mmHg 93%
    03:00 +25°C° 0.2 mm 2 mps 735 mmHg 94%
    04:00 +24°C° 1.7 mm 3 mps 735 mmHg 94%
    05:00 +24°C° 1.7 mm 3 mps 736 mmHg 95%
    06:00 +23°C° 1.7 mm 4 mps 736 mmHg 96%
    07:00 +25°C° 0.2 mm 4 mps 736 mmHg 91%
    08:00 +26°C° 0.2 mm 4 mps 737 mmHg 87%
    09:00 +26°C° 0.2 mm 3 mps 737 mmHg 82%
    10:00 +28°C° 0 mm 3 mps 736 mmHg 73%
    11:00 +30°C° 0 mm 2 mps 736 mmHg 64%
    12:00 +32°C° 0 mm 2 mps 735 mmHg 55%
    13:00 +32°C° 0 mm 2 mps 735 mmHg 56%
    14:00 +34°C° 0 mm 2 mps 734 mmHg 56%
    15:00 +34°C° 0 mm 2 mps 734 mmHg 56%
    16:00 +31°C° 0 mm 2 mps 734 mmHg 62%
    17:00 +30°C° 0 mm 2 mps 734 mmHg 68%
    18:00 +28°C° 0 mm 2 mps 734 mmHg 74%
    19:00 +27°C° 0.5 mm 2 mps 735 mmHg 78%
    20:00 +27°C° 0.5 mm 2 mps 735 mmHg 82%
    21:00 +26°C° 0.5 mm 2 mps 735 mmHg 87%
    22:00 +26°C° 0.1 mm 2 mps 735 mmHg 86%
    23:00 +25°C° 0.1 mm 2 mps 735 mmHg 85%

    20 September, Friday

    Time Temperature Precipitation Wind Pressure Humidity
    00:00 +25°C° 0.1 mm 2 mps 735 mmHg 85%
    01:00 +25°C° 0.1 mm 2 mps 735 mmHg 86%
    02:00 +25°C° 0.1 mm 2 mps 734 mmHg 87%
    03:00 +25°C° 0.1 mm 3 mps 734 mmHg 89%
    04:00 +25°C° 0 mm 2 mps 734 mmHg 90%
    05:00 +25°C° 0 mm 2 mps 735 mmHg 91%
    06:00 +25°C° 0 mm 2 mps 735 mmHg 92%
    07:00 +26°C° 0 mm 2 mps 735 mmHg 85%
    08:00 +28°C° 0 mm 2 mps 735 mmHg 78%
    09:00 +30°C° 0 mm 2 mps 736 mmHg 71%
    10:00 +30°C° 0 mm 2 mps 735 mmHg 69%
    11:00 +31°C° 0 mm 1 mps 735 mmHg 67%
    12:00 +31°C° 0 mm 1 mps 735 mmHg 65%
    13:00 +32°C° 0 mm 1 mps 734 mmHg 62%
    14:00 +32°C° 0 mm 1 mps 734 mmHg 60%
    15:00 +33°C° 0 mm 1 mps 733 mmHg 58%
    16:00 +30°C° 0 mm 0 mps 733 mmHg 61%
    17:00 +29°C° 0 mm 0 mps 733 mmHg 65%
    18:00 +27°C° 0 mm 0 mps 733 mmHg 68%
    19:00 +27°C° 0 mm 0 mps 734 mmHg 69%
    20:00 +27°C° 0 mm 0 mps 734 mmHg 69%
    21:00 +28°C° 0 mm 1 mps 734 mmHg 70%
    22:00 +28°C° 0 mm 1 mps 734 mmHg 72%
    23:00 +27°C° 0 mm 1 mps 735 mmHg 74%
    Show more